FW1524 Weather Reports


time (UTC)temp
C
wind
direction
speed
KPH
gust
KPH
rain 1hr
cm
rain 24hr
cm
rain mn
cm
humidity
%
barometer
mb
20260504031515 9 223 0.0 0.0 0.00 0.00 0.00 51 1010.0
20260504030011 10 223 0.0 0.0 0.00 0.00 0.00 52 1010.1
20260504024509 10 223 0.0 0.0 0.00 0.00 0.00 53 1010.1
20260504021529 10 223 0.0 0.0 0.00 0.00 0.00 56 1010.2
20260504020024 9 223 0.0 0.0 0.00 0.00 0.00 59 1010.2
20260504014520 9 221 0.0 0.0 0.00 0.00 0.00 59 1010.1
20260504011502 10 221 0.0 0.0 0.00 0.00 0.00 59 1009.9
20260504010100 10 194 0.0 0.0 0.00 0.00 0.00 58 1009.8
20260504004554 10 194 0.0 0.0 0.00 0.00 0.00 58 1009.8
20260504001549 11 203 0.0 0.0 0.00 0.00 0.00 58 1009.2
20260504000100 11 201 0.0 0.0 0.00 0.00 0.00 58 1009.1
20260503234536 12 201 0.0 0.0 0.00 0.00 0.00 57 1009.0
20260503231552 13 201 0.0 0.0 0.00 0.00 0.00 49 1008.9
20260503230053 13 201 0.0 0.0 0.00 0.00 0.00 49 1009.0
20260503224543 13 201 0.0 0.0 0.00 0.00 0.00 47 1009.0
20260503221508 13 256 0.0 0.0 0.00 0.00 0.00 48 1009.1
20260503220013 13 226 0.0 0.0 0.00 0.00 0.00 48 1009.2
20260503214600 13 22 0.0 1.6 0.00 0.00 0.00 48 1009.4
20260503211600 13 232 0.0 16.1 0.00 0.00 0.00 49 1009.4
20260503210054 12 32 1.6 12.9 0.00 0.00 0.00 48 1009.7
20260503204549 13 17 0.0 11.3 0.00 0.00 0.00 44 1009.3
20260503201537 13 207 0.0 9.7 0.00 0.00 0.00 41 1009.2
20260503200034 13 290 0.0 12.9 0.00 0.00 0.00 41 1009.3
20260503194530 13 215 0.0 9.7 0.00 0.00 0.00 40 1009.3
20260503191513 13 228 0.0 3.2 0.00 0.00 0.00 40 1009.7
20260503190009 12 14 0.0 12.9 0.00 0.00 0.00 40 1010.0
20260503184511 13 213 0.0 14.5 0.00 0.00 0.00 39 1010.0
20260503181559 13 14 0.0 4.8 0.00 0.00 0.00 41 1010.4
20260503180057 12 215 0.0 22.5 0.00 0.00 0.00 44 1010.8
20260503174551 12 242 0.0 16.1 0.00 0.00 0.00 43 1011.0
20260503173146 12 355 0.0 1.6 0.00 0.00 0.00 45 1011.2
20260503171604 11 234 0.0 11.3 0.00 0.00 0.00 44 1011.2
20260503081521 3 275 0.0 0.0 0.00 0.00 0.00 1 1011.8
20260503071612 3 275 0.0 0.0 0.00 0.00 0.00 1 1011.7
20260503054541 3 275 0.0 0.0 0.00 0.00 0.00 11 1012.1
20260503053036 4 275 0.0 0.0 0.00 0.03 0.00 20 1012.3
20260503051531 4 275 0.0 0.0 0.00 0.03 0.00 27 1012.2
20260503050027 5 275 0.0 0.0 0.00 0.03 0.00 32 1012.7
20260503044541 5 275 0.0 0.0 0.00 0.03 0.00 36 1012.8
20260503043036 5 272 0.0 0.0 0.00 0.03 0.03 38 1012.9
20260503041523 5 5 0.0 0.0 0.00 0.03 0.03 42 1013.0
20260503040019 5 16 0.0 0.0 0.00 0.03 0.03 45 1012.9
20260503034514 5 242 0.0 0.0 0.00 0.03 0.03 47 1013.0